EW6143 Weather Reports


Display with metric or nautical units.
time (UTC)temp
F
wind
direction
speed
MPH
gust
MPH
rain 1hr
in
rain 24hr
in
rain mn
in
humidity
%
barometer
mb
20260906003038 93 262 8.0 16.0 0.00 0.00 0.00 50 1011.2
20260905233047 98 263 1.0 6.0 0.00 0.00 0.00 41 1010.5
20260905230103 98 0 0.0 7.0 0.00 0.00 0.00 42 1010.6
20260905224539 98 333 1.0 10.0 0.00 0.00 0.00 41 1010.6
20260905221539 98 0 0.0 9.0 0.00 0.00 0.00 41 1010.6
20260905213037 100 292 6.0 10.0 0.00 0.00 0.00 40 1011.0
20260905204536 101 207 1.0 4.0 0.00 0.00 0.00 39 1011.6
20260905193035 97 327 2.0 9.0 0.00 0.00 0.00 45 1012.5
20260905191535 97 319 1.0 4.0 0.00 0.00 0.00 45 1013.0
20260905183039 95 279 6.0 12.0 0.00 0.00 0.00 48 1013.9
20260905180036 95 15 2.0 8.0 0.00 0.00 0.00 44 1014.4
20260905174544 95 350 3.0 9.0 0.00 0.00 0.00 46 1014.5
20260905171535 94 265 7.0 13.0 0.00 0.00 0.00 51 1014.8
20260905170035 95 268 4.0 11.0 0.00 0.00 0.00 52 1015.0
20260905163036 96 292 2.0 8.0 0.00 0.00 0.00 50 1015.1
20260905161534 95 316 1.0 3.0 0.00 0.00 0.00 51 1015.0
20260905153036 92 81 1.0 7.0 0.00 0.00 0.00 57 1015.1
20260905144541 88 9 2.0 5.0 0.00 0.00 0.00 63 1014.7
20260905140038 85 0 1.0 3.0 0.00 0.00 0.00 69 1014.9
20260905131553 81 0 0.0 0.0 0.00 0.00 0.00 76 1014.7
20260905130036 79 0 0.0 0.0 0.00 0.00 0.00 77 1014.4
20260905121537 77 0 0.0 1.0 0.00 0.00 0.00 77 1013.8
20260905113040 78 0 0.0 0.0 0.00 0.00 0.00 75 1014.0
20260905111546 78 0 0.0 0.0 0.00 0.00 0.00 75 1014.0
20260905110034 78 0 0.0 0.0 0.00 0.00 0.00 74 1013.8
20260905103036 79 0 0.0 0.0 0.00 0.00 0.00 73 1013.9
20260905101539 79 0 0.0 0.0 0.00 0.00 0.00 73 1013.8
20260905100033 79 0 0.0 0.0 0.00 0.00 0.00 74 1013.7
20260905093036 79 0 0.0 0.0 0.00 0.00 0.00 74 1013.6
20260905091538 80 0 0.0 0.0 0.00 0.00 0.00 74 1013.4
20260905084557 81 0 0.0 0.0 0.00 0.00 0.00 71 1013.2
20260905083035 81 0 0.0 0.0 0.00 0.00 0.00 71 1013.2
20260905074534 82 0 0.0 0.0 0.00 0.00 0.00 69 1013.1
20260905073035 83 0 0.0 3.0 0.00 0.00 0.00 68 1013.4
20260905053036 85 5 0.0 4.0 0.00 0.00 0.00 63 1013.4
20260905043034 86 355 1.0 8.0 0.00 0.00 0.00 62 1013.4
20260905034544 88 281 1.0 4.0 0.00 0.00 0.00 59 1013.4
20260905030037 89 341 2.0 4.0 0.00 0.00 0.00 58 1013.3
20260905024546 89 273 2.0 5.0 0.00 0.00 0.00 57 1013.1
20260905020044 91 299 3.0 6.0 0.00 0.00 0.00 55 1012.3